Location: Oklahoma City
(35.4680°N, 97.5160°W)
Time: 18:07:18
(UTC-05:00)

Tiangong - Visible Passes

Search period start: 10 September 2024 00:00
Search period end: 20 September 2024 00:00
Orbit: 376 x 378 km, 41.5° (Epoch: 10 September)

Date Brightness Start Highest point End Pass type
(mag) Time Alt. Az. Time Alt. Az. Time Alt. Az.
10 Sep 0.3 05:04:43 22° E 05:04:43 22° E 05:06:00 10° E visible
10 Sep -0.8 06:36:55 10° W 06:39:26 23° SW 06:41:58 10° SSE visible
11 Sep -1.0 05:38:22 32° SSE 05:38:22 32° SSE 05:40:23 10° SE visible
12 Sep 0.0 06:12:06 13° SSW 06:12:06 13° SSW 06:13:05 10° S visible
15 Sep -0.4 21:08:36 10° SW 21:10:03 23° SSW 21:10:03 23° SSW visible
16 Sep -0.5 20:06:50 10° S 20:09:06 19° SE 20:11:05 11° E visible
16 Sep 0.7 21:42:25 10° WSW 21:43:09 16° WSW 21:43:09 16° WSW visible
17 Sep -2.2 20:39:49 10° SW 20:42:53 65° SSE 20:43:57 36° E visible
18 Sep -1.1 21:13:53 10° W 21:16:34 43° NW 21:16:34 43° NW visible
19 Sep -2.1 20:10:59 10° WSW 20:14:05 76° NNW 20:16:58 12° ENE visible
19 Sep 1.1 21:48:15 10° WNW 21:48:59 15° WNW 21:48:59 15° WNW visible
